User: anonymous   Login
Location: Unspecified
(0.0000°N, 0.0000°E)
Time: 22:59:20
(UTC+00:00)
Language:

NNS O-31 - Orbit

View from above orbital plane
View from above orbital plane
View from above satellite
View from above satellite

Ground track
Ground track

The orbit data is extracted from the following two-line orbital elements,

1 19420U 88074B   17267.41684681 +.00000035 +00000-0 +43052-4 0  9990
2 19420 089.9913 018.8354 0095574 158.5327 243.7385 13.42185606423879
Epoch (UTC): 24 September 2017 10:00:15
Eccentricity: 0.0095574
inclination: 89.9913°
perigee height: 1029 km
apogee height: 1172 km
right ascension of ascending node: 18.8354°
argument of perigee: 158.5327°
revolutions per day: 13.42185606
mean anomaly at epoch: 243.7385°
orbit number at epoch: 42387

The dashed part of the orbit path shows where the satellite is in the earth's shadow,  

DLR